Miscellaneous Local Product
Issued by NWS North Platte, NE

Home | Current Version | Previous Version | Text Only | Print | Product List | Glossary On
Versions: 1 2 3 4 5 6 7 8 9 10 11 12 13 14 15 16 17 18 19 20 21 22 23 24 25 26 27 28 29 30 31 32 33 34 35 36 37 38 39 40 41 42 43 44 45 46 47 48 49 50
000
AXUS43 KLBF 270610
MISLBF


WESTERN AND NORTH CENTRAL NEBRASKA HOURLY WEATHER ROUNDUP
NATIONAL WEATHER SERVICE NORTH PLATTE NE
1200 AM CST SAT DEC 27 2014

***STATIONS NOT REPORTING VARIABLES SUCH AS SKY/WEATHER OR
PRESSURE ARE PROVIDED BY THE NEBRASKA DEPARTMENT OF
ROADS...RAWS...AND APRS NETWORKS...AND ARE NOT UNDER
NATIONAL WEATHER SERVICE QUALITY CONTROL***

...OBSERVATIONS IN AND NEAR THE EASTERN PANHANDLE OF NEBRASKA...

CITY           SKY/WX    TMP DP  RH WIND       PRES   REMARKS
PINE RIDGE     CLOUDY    16  12  84 SW3       30.13S
CHADRON        CLOUDY    19  15  84 CALM      30.15R
ALLIANCE       CLOUDY    15  14  95 W3        30.09S
SIDNEY         LGT SNOW  15  11  83 W7        30.11R FOG     WCI   5
WHITECLAY        N/A     16  10  79 CALM        N/A
CRESCENT LAKE    N/A     15  12  88 W6          N/A  WCI   6
LISCO            N/A     20  16  84 W5          N/A  WCI  13
BIG SPRINGS      N/A     18  16  91 W5          N/A  WCI  11
$$

...OBSERVATIONS IN NORTH CENTRAL NEBRASKA...

CITY           SKY/WX    TMP DP  RH WIND       PRES   REMARKS
VALENTINE      LGT SNOW  17  13  84 NW7       30.15S FOG     WCI   8
THEDFORD       LGT SNOW  18  15  89 NW12      30.14S WCI   5
AINSWORTH      LGT SNOW  16  14  90 N9        30.13S WCI   5
O`NEILL        LGT SNOW  20  19  95 NW13      30.13F WCI   7
ORD            LGT SNOW  19  16  88 NW10      30.13R FOG     WCI   7
BROKEN BOW     LGT SNOW  20  16  84 NW12      30.13S FOG     WCI   8
BROWNLEE         N/A     15  11  85 NW10        N/A  WCI   2
SPRINGVIEW       N/A     16  13  89 NW3         N/A
BREWSTER         N/A     21  20  96 W5          N/A  WCI  15
ROSE             N/A     25  25 100 W3          N/A
SARGENT          N/A     19  17  93 CALM        N/A
COMSTOCK         N/A     25  23  91 NW8         N/A  WCI  16
CHAMBERS         N/A     19  16  88 NE6         N/A  WCI  11
EWING            N/A     20  19  94 CALM        N/A
$$

...OBSERVATIONS IN SOUTHWEST NEBRASKA AND FAR NORTHEAST COLORADO...

CITY           SKY/WX    TMP DP  RH WIND       PRES   REMARKS
WRAY           LGT SNOW  17  15  91 W6        30.16R WCI   9
HOLYOKE        LGT SNOW  19  16  86 W8        30.15R WCI   9
IMPERIAL       CLOUDY    13  10  88 NW8       30.16R WCI   2
OGALLALA       LGT SNOW  18  16  94 W5        30.15R WCI  11
NORTH PLATTE   LGT SNOW  17  14  88 NW6       30.15S FOG     WCI   9
MCCOOK         CLOUDY    19  15  84 NW8       30.17S WCI   9
LEXINGTON      LGT SNOW  20  18  90 NW9       30.16R WCI  10
PAXTON           N/A     19  17  93 NW3         N/A
BRADY            N/A     17  14  88 CALM        N/A
GOTHENBURG       N/A     19  17  90 NW5         N/A  WCI  12
CALLAWAY         N/A     17  15  93 NW5         N/A  WCI  10
$$

...NORTH PLATTE AREA...

CITY           SKY/WX    TMP DP  RH WIND       PRES   REMARKS
AIRPORT        LGT SNOW  17  14  88 NW6       30.15S FOG     WCI   9
DOWNTOWN         N/A     18  15  89 CALM        N/A
$$

...SOME WEATHER OBSERVATIONS FROM AROUND THE REGION...

CITY           SKY/WX    TMP DP  RH WIND       PRES   REMARKS
DENVER         FLURRIES  10   7  87 S8        30.08S WCI  -2
LARAMIE        LGT SNOW  -2  -4  91 CALM      29.99R FOG
CHEYENNE       MOCLDY    11   5  77 W9        30.01R WCI  -2
SCOTTSBLUFF    CLOUDY    13  11  92 W6        30.12R WCI   4
RAPID CITY     MOCLDY     6   3  87 N3        30.13R
PIERRE         MOCLDY     9   5  84 NW3       30.19S
WINNER         LGT SNOW  17  13  84 NW7       30.17S FOG     WCI   8
SIOUX FALLS    LGT SNOW  22  20  92 N12       30.08S VSB 1   WCI  10
OMAHA          LGT SNOW  31  29  92 NW14      30.05R VSB 1   WCI  21
GRAND ISLAND   LGT SNOW  21  18  88 NW12      30.13S FOG     WCI   9
KANSAS CITY    LGT RAIN  36  33  89 W9        30.01R WCI  29
WICHITA        CLOUDY    34  27  75 NW14      30.15R WCI  25
HAYS           CLEAR     19  10  68 NW12      30.16R WCI   7
LIBERAL        PTCLDY    19  14  79 NW5       30.20R WCI  13
GOODLAND       PTCLDY    11   9  92 NW10      30.14S WCI  -3
$$



USA.gov is the U.S. government's official web portal to all federal, state and local government web resources and services.